Precipitable_Water
0.88 0.89 1.00 1.05 1.15 1.18 1.19 1.26 1.27 1.23 1.14 1.17 1.21 1.13 1.10 0.89 0.93 0.88 0.84 0.92 0.93 0.88 0.86 0.81 0.84 0.87 0.88 0.89 0.92 1.01 1.01 1.01 0.99
0.82 0.89 0.99 1.03 1.12 1.18 1.28 1.33 1.33 1.27 1.15 1.16 1.23 1.19 1.00 0.97 1.01 0.96 0.93 1.07 1.11 1.01 0.98 0.87 0.90 0.89 0.88 0.90 0.95 0.93 0.94 0.97 1.03
0.74 0.89 0.97 1.02 1.03 1.03 1.15 1.22 1.33 1.42 1.35 1.19 1.22 1.23 1.05 1.04 1.06 1.03 1.01 1.09 1.07 0.98 0.97 0.92 0.89 0.91 0.88 0.90 0.92 0.89 0.89 0.94 0.98
0.77 0.82 0.88 0.93 0.94 1.05 1.12 1.20 1.29 1.38 1.44 1.41 1.36 1.34 1.18 1.21 1.23 1.13 1.09 1.07 1.02 0.95 0.98 0.95 0.91 0.96 0.92 0.86 0.83 0.92 0.95 0.93 0.94
0.72 0.80 0.88 0.91 0.96 0.97 1.05 1.12 1.22 1.32 1.44 1.48 1.47 1.51 1.34 1.32 1.33 1.20 1.13 1.12 1.09 1.04 0.99 0.98 0.87 0.89 0.85 0.85 0.87 0.89 0.87 0.87 0.93
0.64 0.72 0.79 0.84 0.94 0.99 1.01 1.06 1.17 1.26 1.37 1.45 1.52 1.56 1.48 1.35 1.36 1.29 1.12 1.08 1.10 1.06 1.00 0.91 0.89 0.89 0.87 0.90 0.95 0.94 0.98 1.00 1.03
0.68 0.66 0.74 0.84 0.89 0.93 0.94 0.98 1.10 1.22 1.28 1.41 1.49 1.52 1.41 1.34 1.29 1.23 1.19 1.06 1.08 1.01 0.97 0.92 0.93 0.98 0.97 1.00 0.95 0.98 1.01 1.04 1.06
0.69 0.72 0.79 0.82 0.85 0.89 0.95 1.00 1.08 1.29 1.40 1.37 1.48 1.44 1.46 1.40 1.32 1.31 1.24 1.13 1.04 1.00 0.94 0.95 1.02 1.03 1.03 1.06 1.00 0.99 1.07 1.06 1.01
0.64 0.76 0.82 0.85 0.87 0.94 0.93 1.05 1.12 1.13 1.27 1.39 1.48 1.47 1.45 1.49 1.48 1.40 1.33 1.16 1.02 0.95 0.89 0.98 1.05 1.05 1.05 1.04 1.01 1.07 1.09 1.07 1.00
0.70 0.73 0.73 0.79 0.90 0.99 1.09 1.19 1.24 1.20 1.33 1.49 1.51 1.47 1.49 1.56 1.47 1.41 1.26 1.12 0.99 0.92 0.90 1.01 1.08 1.13 1.15 1.08 1.11 1.11 1.09 1.11 1.09
0.70 0.74 0.72 0.69 0.69 0.79 0.94 1.11 1.22 1.29 1.33 1.42 1.60 1.56 1.55 1.45 1.42 1.36 1.20 1.07 0.95 0.95 1.00 1.04 1.16 1.32 1.38 1.27 1.24 1.15 1.15 1.18 1.15
0.71 0.72 0.72 0.71 0.73 0.75 0.74 0.90 1.06 1.15 1.23 1.44 1.51 1.41 1.41 1.42 1.40 1.29 1.12 1.00 0.95 0.98 1.08 1.20 1.40 1.45 1.18 1.38 1.33 1.18 1.19 1.13 1.08
0.75 0.84 0.86 0.84 0.79 0.76 0.75 0.86 0.98 1.01 1.10 1.26 1.31 1.37 1.38 1.39 1.33 1.21 1.08 1.01 1.01 1.10 1.23 1.41 1.47 1.46 1.33 1.33 1.21 1.25 1.06 1.05 1.01
0.91 0.93 0.87 0.90 0.87 0.79 0.82 0.91 0.93 1.00 1.14 1.22 1.35 1.44 1.39 1.35 1.30 1.21 1.19 1.15 1.20 1.25 1.45 1.44 1.39 1.39 1.28 1.15 1.22 1.04 1.01 0.99 0.98
0.87 0.92 1.00 1.03 0.93 0.95 0.97 0.97 1.02 1.05 1.16 1.33 1.44 1.48 1.44 1.41 1.43 1.50 1.60 1.35 1.33 1.42 1.36 1.24 1.24 1.18 0.96 1.02 0.92 0.98 1.00 1.06 1.09
0.89 0.87 0.77 0.92 1.04 1.03 1.15 1.13 1.18 1.18 1.42 1.54 1.49 1.49 1.52 1.31 1.36 1.45 1.54 1.71 1.39 1.28 1.20 1.18 1.10 0.96 0.87 0.85 0.90 0.99 1.00 0.98 0.96
0.88 0.88 0.81 0.85 1.00 1.07 1.07 1.23 1.29 1.36 1.44 1.51 1.49 1.45 1.42 1.38 1.23 1.23 1.30 1.34 1.26 1.20 1.11 1.03 0.93 0.84 0.77 0.77 0.85 0.89 0.92 0.94 0.93
1.01 0.99 0.99 1.02 1.06 1.07 1.23 1.40 1.45 1.43 1.40 1.37 1.34 1.32 1.22 1.19 1.13 1.06 1.15 1.17 1.11 1.03 1.03 0.96 0.91 0.86 0.85 0.83 0.83 0.86 0.90 0.92 0.88
1.10 1.04 1.07 1.13 1.22 1.34 1.36 1.41 1.42 1.38 1.30 1.24 1.25 1.16 1.17 1.14 1.06 1.08 1.09 1.00 1.02 1.04 0.98 1.00 0.98 0.96 0.89 0.86 0.89 0.87 0.88 0.88 0.87
0.93 0.86 1.00 1.11 1.17 1.25 1.39 1.35 1.28 1.32 1.42 1.39 1.20 1.15 1.14 1.04 1.09 1.09 1.07 0.96 0.88 0.86 0.96 1.00 0.96 0.93 0.90 0.87 0.86 0.87 0.88 0.89 0.88
Wind_Speed
17 15 19 21 21 19 19 18 19 18 18 17 16 14 12 10 9 9 10 10 11 12 13 14 14 15 16 16 16 17 18 18 18
19 17 18 19 21 21 21 20 20 20 19 19 18 16 14 13 11 11 11 12 12 14 15 15 15 16 17 18 18 18 19 19 19
18 18 18 19 20 21 21 21 21 21 21 20 20 19 18 16 15 13 13 13 14 15 16 16 17 18 18 19 19 20 20 21 22
16 18 18 19 20 21 22 22 22 22 22 21 22 21 20 19 18 16 15 15 15 16 17 18 18 19 19 20 20 21 22 23 23
15 18 20 19 20 20 20 22 23 24 24 24 24 23 22 21 20 19 18 18 18 18 19 19 20 20 20 21 21 22 22 22 23
14 14 17 19 20 19 19 22 23 24 25 26 25 24 23 22 22 21 20 20 20 20 20 20 20 20 21 21 22 22 23 23 24
14 13 13 17 19 20 19 20 22 23 24 25 25 24 24 23 23 22 21 21 21 21 21 21 20 21 21 22 23 23 24 25 26
15 15 15 17 18 20 21 21 22 25 26 25 27 26 26 24 24 23 22 22 21 22 21 21 21 22 23 24 24 25 25 25 25
16 18 18 19 21 23 23 23 24 23 27 27 27 27 27 26 25 24 24 23 22 22 22 22 22 23 24 24 25 26 25 26 27
17 17 17 19 20 23 25 26 25 25 26 27 29 28 27 27 27 26 24 23 22 22 22 23 24 24 25 25 25 28 27 28 28
19 16 16 16 17 20 24 26 27 26 26 28 28 28 27 26 26 26 25 23 23 23 23 24 25 25 26 23 28 29 28 29 27
20 19 18 17 18 20 21 22 23 24 25 27 28 27 28 27 27 26 25 25 24 24 25 24 24 24 24 31 30 31 30 27 28
19 19 19 18 19 19 20 20 22 22 24 25 27 27 27 27 26 27 27 26 26 27 26 25 26 27 30 30 32 30 27 27 27
19 19 20 21 21 22 22 19 19 22 24 26 26 26 25 25 25 27 29 27 26 25 24 24 25 28 29 31 29 28 28 28 27
18 21 24 26 24 24 22 21 21 22 23 23 23 21 20 21 24 28 32 25 22 22 24 26 26 28 29 30 29 28 28 27 26
21 24 24 27 27 24 24 22 20 19 20 19 19 20 21 20 23 26 28 16 22 23 25 27 29 29 29 29 27 27 26 25 25
26 27 27 26 25 25 24 22 20 18 19 19 19 20 21 21 24 32 28 21 22 23 25 26 26 26 27 26 25 25 25 24 24
25 27 27 27 25 24 23 22 20 17 18 21 21 22 21 23 25 23 25 24 24 25 25 24 24 25 25 24 25 25 24 24 24
24 24 23 22 20 20 19 19 19 21 22 21 20 22 23 25 24 23 24 25 24 24 23 24 24 24 24 25 24 23 24 24 24
22 21 19 18 19 20 21 22 23 23 24 25 29 31 30 26 27 26 25 25 25 24 25 24 24 24 24 23 22 22 23 22 20
Wind_Direction
216 218 217 219 219 220 221 225 228 231 235 237 240 248 255 266 281 300 307 315 323 324 325 322 319 316 314 313 312 312 311 307 307
222 224 219 220 220 224 226 229 232 234 236 237 239 244 251 258 271 287 296 302 311 318 319 319 319 318 315 312 310 310 310 308 304
227 227 224 226 223 225 228 231 234 237 238 238 241 245 250 255 266 277 287 296 304 310 314 315 315 315 315 313 310 308 308 306 304
230 228 226 226 226 230 233 236 237 239 240 242 244 247 249 254 262 268 278 289 298 305 309 311 311 313 313 311 310 309 308 306 304
234 234 233 232 230 232 238 241 242 242 242 244 247 248 249 255 260 264 271 282 291 298 303 307 309 310 311 311 311 310 309 309 307
233 230 232 234 232 238 246 246 246 245 244 246 247 248 251 255 259 263 268 276 285 293 299 304 307 309 311 311 311 310 310 310 309
231 237 234 233 237 245 252 251 249 247 247 246 246 247 250 252 256 260 267 274 282 290 295 300 304 307 309 310 312 311 310 309 309
239 240 247 244 245 252 258 257 258 252 248 249 246 248 250 253 254 260 266 272 281 287 292 296 300 303 306 309 310 311 309 309 309
244 248 255 255 256 259 262 260 260 257 249 248 246 249 251 255 254 259 264 269 278 285 289 293 296 299 304 307 310 311 308 307 309
243 253 253 256 266 268 265 265 260 258 251 248 248 249 252 252 255 260 260 267 275 281 287 292 295 298 303 304 309 311 306 305 307
243 245 251 260 278 279 272 269 263 258 253 249 248 252 252 255 254 258 259 264 272 280 287 291 294 296 304 303 308 311 307 305 304
242 246 252 265 280 289 283 273 263 256 255 250 249 253 255 255 254 254 255 262 271 279 286 289 292 295 301 305 306 308 307 303 303
245 246 252 265 279 290 288 277 266 259 255 252 251 252 257 255 254 253 256 264 271 278 284 285 290 294 300 302 305 305 304 304 303
243 248 256 268 279 285 287 281 270 262 256 254 252 256 258 255 257 257 260 264 272 277 282 290 295 300 302 306 303 302 301 303 301
259 263 268 271 277 280 282 278 271 264 258 256 255 255 256 262 269 270 261 260 267 272 283 292 296 300 301 301 302 300 303 303 302
267 272 278 278 274 280 281 278 273 270 261 254 250 252 256 268 283 270 285 264 278 275 285 291 296 298 302 301 300 301 303 303 304
268 277 278 277 274 273 277 271 270 262 263 257 259 262 267 274 280 270 287 289 292 288 289 294 294 298 301 302 301 302 303 302 303
278 277 279 279 272 270 269 266 261 257 265 266 263 266 271 280 285 278 279 287 292 293 295 295 296 300 301 301 302 302 301 301 301
274 281 283 280 271 262 259 259 261 271 273 266 264 270 280 286 279 280 284 290 294 296 297 298 299 300 302 303 303 302 302 302 300
279 279 278 272 266 265 263 266 268 271 270 273 280 279 283 278 272 278 282 287 290 292 296 299 300 301 302 302 302 302 306 306 301